GW4763 Weather Reports


time (UTC)temp
F
wind
direction
speed
knots
gust
knots
rain 1hr
in
rain 24hr
in
rain mn
in
humidity
%
barometer
mb
20260507234658 71 218 1.7 12.2 0.00 0.00 0.00 14
20260507234058 70 212 4.3 16.5 0.00 0.00 0.00 12
20260507233458 71 231 6.1 16.5 0.00 0.00 0.00 12
20260507232858 71 232 4.3 13.9 0.00 0.00 0.00 13
20260507232315 71 245 7.0 13.9 0.00 0.00 0.00 12
20260507231732 72 259 4.3 12.2 0.00 0.00 0.00 11
20260507231058 73 268 6.1 12.2 0.00 0.00 0.00 12
20260507230516 74 199 3.5 13.9 0.00 0.00 0.00 12
20260507225858 73 241 3.5 14.8 0.00 0.00 0.00 13
20260507225258 73 228 2.6 17.4 0.00 0.00 0.00 13
20260507224658 73 123 4.3 14.8 0.00 0.00 0.00 12
20260507224115 73 153 5.2 12.2 0.00 0.00 0.00 11
20260507223458 73 205 3.5 15.6 0.00 0.00 0.00 14
20260507222858 74 247 6.1 14.8 0.00 0.00 0.00 11
20260507222258 73 187 3.5 13.9 0.00 0.00 0.00 12
20260507221658 73 220 5.2 13.9 0.00 0.00 0.00 12
20260507221058 74 264 3.5 14.8 0.00 0.00 0.00 12
20260507220458 74 240 4.3 13.0 0.00 0.00 0.00 12
20260507215858 74 226 6.1 13.9 0.00 0.00 0.00 12
20260507215258 74 201 3.5 16.5 0.00 0.00 0.00 12
20260507214658 75 205 4.3 13.0 0.00 0.00 0.00 12
20260507214132 74 156 4.3 16.5 0.00 0.00 0.00 12
20260507213458 74 211 4.3 12.2 0.00 0.00 0.00 11
20260507212858 73 239 6.1 15.6 0.00 0.00 0.00 10
20260507212258 75 213 4.3 12.2 0.00 0.00 0.00 11
20260507211658 74 199 1.7 13.9 0.00 0.00 0.00 12
20260507211115 75 209 7.0 15.6 0.00 0.00 0.00 11
20260507210515 74 216 1.7 12.2 0.00 0.00 0.00 12
20260507205915 74 166 6.1 16.5 0.00 0.00 0.00 12
20260507205258 74 166 6.1 16.5 0.00 0.00 0.00 11
20260507204658 74 181 2.6 16.5 0.00 0.00 0.00 12
20260507204058 74 192 4.3 13.0 0.00 0.00 0.00 11
20260507203515 74 175 3.5 16.5 0.00 0.00 0.00 13
20260507202858 74 206 2.6 16.5 0.00 0.00 0.00 13
20260507202259 74 192 6.1 15.6 0.00 0.00 0.00 12
20260507201658 73 240 6.1 10.4 0.00 0.00 0.00 12
20260507201058 73 221 3.5 14.8 0.00 0.00 0.00 14
20260507200458 73 211 3.5 14.8 0.00 0.00 0.00 14
20260507195858 73 191 4.3 13.9 0.00 0.00 0.00 15
20260507195258 73 217 6.1 13.9 0.00 0.00 0.00 13
20260507194658 74 234 4.3 12.2 0.00 0.00 0.00 14
20260507194058 73 244 5.2 14.8 0.00 0.00 0.00 15
20260507193458 72 254 4.3 14.8 0.00 0.00 0.00 15
20260507192859 73 259 3.5 14.8 0.00 0.00 0.00 16
20260507192258 73 242 4.3 14.8 0.00 0.00 0.00 15
20260507191658 73 216 4.3 14.8 0.00 0.00 0.00 15
20260507191058 72 201 2.6 11.3 0.00 0.00 0.00 15
20260507190516 71 211 4.3 16.5 0.00 0.00 0.00 16
20260507185858 72 273 9.6 14.8 0.00 0.00 0.00 15
20260507185332 72 279 3.5 10.4 0.00 0.00 0.00 15
20260507184658 71 205 3.5 13.9 0.00 0.00 0.00 14
20260507184058 72 217 4.3 14.8 0.00 0.00 0.00 14
20260507183459 72 246 4.3 11.3 0.00 0.00 0.00 15
20260507182858 71 237 3.5 13.9 0.00 0.00 0.00 17
20260507182258 72 189 1.7 10.4 0.00 0.00 0.00 15
20260507181732 71 165 0.0 7.8 0.00 0.00 0.00 16
20260507181058 71 160 1.7 7.8 0.00 0.00 0.00 20
20260507180458 70 140 0.0 4.3 0.00 0.00 0.00 18
20260507175915 70 174 3.5 9.6 0.00 0.00 0.00 16
20260507175258 70 212 2.6 11.3 0.00 0.00 0.00 17
20260507174658 70 249 2.6 11.3 0.00 0.00 0.00 19
20260507174058 69 241 4.3 11.3 0.00 0.00 0.00 18
20260507173515 71 167 3.5 9.6 0.00 0.00 0.00 16
20260507172858 70 213 3.5 11.3 0.00 0.00 0.00 19
20260507172258 69 193 2.6 9.6 0.00 0.00 0.00 18
20260507171658 68 121 2.6 7.0 0.00 0.00 0.00 24
20260507171058 67 137 2.6 10.4 0.00 0.00 0.00 21
20260507170458 67 121 3.5 12.2 0.00 0.00 0.00 22
20260507165932 67 122 1.7 6.1 0.00 0.00 0.00 21
20260507165258 66 103 1.7 16.5 0.00 0.00 0.00 26
20260507164715 66 141 1.7 8.7 0.00 0.00 0.00 24
20260507164058 66 154 3.5 10.4 0.00 0.00 0.00 24
20260507163459 66 165 4.3 11.3 0.00 0.00 0.00 27
20260507162858 65 108 2.6 11.3 0.00 0.00 0.00 28
20260507162258 64 303 1.7 14.8 0.00 0.00 0.00 27
20260507161658 65 124 3.5 12.2 0.00 0.00 0.00 28
20260507161058 64 139 3.5 11.3 0.00 0.00 0.00 30
20260507160458 64 162 4.3 11.3 0.00 0.00 0.00 30
20260507155858 63 138 3.5 10.4 0.00 0.00 0.00 32
20260507155315 63 152 3.5 12.2 0.00 0.00 0.00 33
20260507154658 62 120 3.5 12.2 0.00 0.00 0.00 34
20260507154058 61 145 2.6 11.3 0.00 0.00 0.00 36
20260507153459 61 127 3.5 13.9 0.00 0.00 0.00 38
20260507152858 60 141 0.9 12.2 0.00 0.00 0.00 37
20260507152258 60 108 2.6 10.4 0.00 0.00 0.00 39
20260507151658 59 116 3.5 10.4 0.00 0.00 0.00 41
20260507151058 59 125 4.3 9.6 0.00 0.00 0.00 39
20260507150458 58 136 3.5 7.0 0.00 0.00 0.00 41
20260507145858 57 142 3.5 7.0 0.00 0.00 0.00 41
20260507145258 56 147 1.7 7.0 0.00 0.00 0.00 44
20260507144658 55 143 3.5 6.1 0.00 0.00 0.00 45
20260507144058 54 165 2.6 4.3 0.00 0.00 0.00 45
20260507143458 53 157 2.6 4.3 0.00 0.00 0.00 46
20260507142858 51 144 0.0 4.3 0.00 0.00 0.00 49
20260507142258 50 69 0.0 3.5 0.00 0.00 0.00 49
20260507141658 49 160 0.0 4.3 0.00 0.00 0.00 49
20260507141132 49 147 0.0 2.6 0.00 0.00 0.00 50
20260507140458 47 159 0.0 2.6 0.00 0.00 0.00 54
20260507135858 46 127 2.6 3.5 0.00 0.00 0.00 57
20260507135258 45 113 1.7 3.5 0.00 0.00 0.00 61
20260507134658 45 104 0.0 3.5 0.00 0.00 0.00 65
20260507134058 43 50 0.0 2.6 0.00 0.00 0.00 68
20260507133458 42 73 0.0 2.6 0.00 0.00 0.00 71
20260507132915 42 156 0.0 2.6 0.00 0.00 0.00 77
20260507132258 40 81 0.0 2.6 0.00 0.00 0.00 84
20260507131658 39 140 0.0 1.7 0.00 0.00 0.00 93
20260507131116 37 206 0.0 0.0 0.00 0.00 0.00 97
20260507130458 35 244 0.0 1.7 0.00 0.00 0.00 98
20260507125858 34 331 0.0 1.7 0.00 0.00 0.00 97
20260507125258 33 225 0.0 3.5 0.00 0.00 0.00 97
20260507124658 32 199 0.0 2.6 0.00 0.00 0.00 97
20260507124115 32 157 0.0 2.6 0.00 0.00 0.00 97
20260507123532 31 204 0.0 2.6 0.00 0.00 0.00 96
20260507122858 32 320 0.0 2.6 0.00 0.00 0.00 96
20260507122258 32 305 0.0 0.0 0.00 0.00 0.00 96
20260507121658 32 94 0.0 2.6 0.00 0.00 0.00 96
20260507121058 32 195 0.0 3.5 0.00 0.00 0.00 97
20260507120458 32 243 0.0 1.7 0.00 0.00 0.00 97
20260507115858 32 236 0.9 3.5 0.00 0.00 0.00 97
20260507115259 32 249 0.0 2.6 0.00 0.00 0.00 96
20260507114658 31 196 0.0 2.6 0.00 0.00 0.00 95
20260507114115 32 260 0.0 1.7 0.00 0.00 0.00 95
20260507113458 32 260 0.0 2.6 0.00 0.00 0.00 96
20260507112858 32 209 0.0 0.0 0.00 0.00 0.00 95
20260507112315 32 258 0.0 0.0 0.00 0.00 0.00 95
20260507111658 32 238 0.0 0.0 0.00 0.00 0.00 94
20260507111058 33 238 0.0 0.0 0.00 0.00 0.00 94
20260507110516 33 238 0.0 1.7 0.00 0.00 0.00 94
20260507105915 33 252 0.0 3.5 0.00 0.00 0.00 94
20260507105258 34 266 0.9 2.6 0.00 0.00 0.00 96
20260507104659 33 235 0.0 2.6 0.00 0.00 0.00 96
20260507104058 34 241 0.0 1.7 0.00 0.00 0.00 96
20260507103532 33 207 0.0 2.6 0.00 0.00 0.00 95
20260507102858 33 253 0.0 0.0 0.00 0.00 0.00 95
20260507102258 33 253 0.0 0.0 0.00 0.00 0.00 95
20260507101732 34 253 0.0 0.0 0.00 0.00 0.00 95
20260507101058 34 255 0.0 1.7 0.00 0.00 0.00 95
20260507100509 34 255 0.0 1.7 0.00 0.00 0.00 94
20260507095858 34 214 0.0 0.0 0.00 0.00 0.00 93
20260507095258 34 214 0.0 2.6 0.00 0.00 0.00 93
20260507094658 34 302 0.0 2.6 0.00 0.00 0.00 92
20260507094058 34 127 0.0 1.7 0.00 0.00 0.00 91
20260507093458 35 273 0.0 1.7 0.00 0.00 0.00 91
20260507092858 35 231 0.0 0.0 0.00 0.00 0.00 88
20260507092258 35 283 0.0 1.7 0.00 0.00 0.00 88
20260507091658 36 283 0.0 1.7 0.00 0.00 0.00 85
20260507091058 36 279 0.9 1.7 0.00 0.00 0.00 85
20260507090532 36 278 0.9 1.7 0.00 0.00 0.00 88
20260507085915 36 269 0.0 1.7 0.00 0.00 0.00 85
20260507085258 36 256 0.9 2.6 0.00 0.00 0.00 85
20260507084715 37 284 0.0 2.6 0.00 0.00 0.00 85
20260507084058 36 269 0.0 3.5 0.00 0.00 0.00 87
20260507083515 36 274 0.0 3.5 0.00 0.00 0.00 86
20260507082915 36 284 0.0 2.6 0.00 0.00 0.00 88
20260507082258 37 259 2.6 2.6 0.00 0.00 0.00 87
20260507081658 37 276 0.0 1.7 0.00 0.00 0.00 84
20260507081058 37 265 0.0 4.3 0.00 0.00 0.00 84
20260507080458 37 267 0.9 2.6 0.00 0.00 0.00 85
20260507075858 37 277 1.7 3.5 0.00 0.00 0.00 84
20260507075258 36 262 0.0 1.7 0.00 0.00 0.00 89
20260507074658 37 54 0.0 2.6 0.00 0.00 0.00 86
20260507074058 37 309 0.0 3.5 0.00 0.00 0.00 84
20260507073458 37 307 0.0 3.5 0.00 0.00 0.00 87
20260507072858 36 272 0.0 2.6 0.00 0.00 0.00 88
20260507072258 36 39 0.0 2.6 0.00 0.00 0.00 86
20260507071658 37 227 0.0 2.6 0.00 0.00 0.00 82
20260507071115 37 237 1.7 2.6 0.00 0.00 0.00 84
20260507070515 37 245 0.9 2.6 0.00 0.00 0.00 82
20260507065859 37 272 1.7 3.5 0.00 0.00 0.00 81
20260507065316 37 268 0.0 2.6 0.00 0.00 0.00 84
20260507064715 37 268 0.9 0.0 0.00 0.00 0.00 84
20260507064058 38 270 0.0 2.6 0.00 0.00 0.00 83
20260507063459 38 0 0.0 3.5 0.00 0.00 0.00 76
20260507062858 39 292 0.9 2.6 0.00 0.00 0.00 80
20260507062259 40 2 0.0 0.9 0.00 0.00 0.00 74
20260507061658 40 96 0.0 4.3 0.00 0.00 0.00 74
20260507061058 39 285 0.0 2.6 0.00 0.00 0.00 74
20260507060458 40 285 0.9 1.7 0.00 0.00 0.00 75
20260507055858 41 282 0.0 2.6 0.00 0.00 0.00 73
20260507055258 41 262 0.0 2.6 0.00 0.00 0.00 72
20260507054658 42 274 1.7 1.7 0.00 0.00 0.00 70
20260507054058 43 266 0.0 3.5 0.00 0.00 0.00 67
20260507053515 43 266 2.6 3.5 0.00 0.00 0.00 65
20260507052858 45 267 0.0 1.7 0.00 0.00 0.00 64
20260507052258 48 217 0.0 3.5 0.00 0.00 0.00 54
20260507051732 48 211 0.9 3.5 0.00 0.00 0.00 51
20260507051102 47 235 1.7 3.5 0.00 0.00 0.00 54
20260507050458 46 220 0.9 2.6 0.00 0.00 0.00 56
20260507045858 45 173 0.9 2.6 0.00 0.00 0.00 57
20260507045259 44 222 0.9 1.7 0.00 0.00 0.00 60
20260507044658 46 181 0.0 1.7 0.00 0.00 0.00 57
20260507044058 47 230 0.0 2.6 0.00 0.00 0.00 54
20260507043550 47 217 0.9 2.6 0.00 0.00 0.00 51
20260507042858 47 236 0.0 2.6 0.00 0.00 0.00 51
20260507042258 48 232 0.0 2.6 0.00 0.00 0.00 51
20260507041658 48 244 0.9 2.6 0.00 0.00 0.00 52
20260507041116 50 253 0.0 2.6 0.00 0.00 0.00 47
20260507040459 52 240 1.7 2.6 0.00 0.00 0.00 42
20260507035858 53 245 0.0 3.5 0.00 0.00 0.00 40
20260507035258 53 257 1.7 4.3 0.00 0.00 0.00 38
20260507034715 53 235 1.7 3.5 0.00 0.00 0.00 38
20260507034058 53 249 1.7 4.3 0.00 0.00 0.00 39
20260507033459 53 246 2.6 4.3 0.00 0.00 0.00 39
20260507032916 54 270 2.6 5.2 0.00 0.00 0.00 37
20260507032258 54 233 1.7 4.3 0.00 0.00 0.00 37
20260507031715 54 251 2.6 4.3 0.00 0.00 0.00 35
20260507031058 55 244 1.7 3.5 0.00 0.00 0.00 35
20260507030458 56 247 0.9 4.3 0.00 0.00 0.00 34
20260507025858 56 256 1.7 5.2 0.00 0.00 0.00 33
20260507025259 57 254 1.7 3.5 0.00 0.00 0.00 33
20260507024659 57 227 0.9 3.5 0.00 0.00 0.00 33
20260507024115 58 223 1.7 6.1 0.00 0.00 0.00 31
20260507023458 59 259 2.6 6.1 0.00 0.00 0.00 30
20260507022859 59 242 2.6 6.1 0.00 0.00 0.00 29
20260507022259 60 264 2.6 7.8 0.00 0.00 0.00 27
20260507021658 60 271 2.6 7.8 0.00 0.00 0.00 26
20260507021058 61 267 3.5 9.6 0.00 0.00 0.00 26
20260507020458 61 240 3.5 8.7 0.00 0.00 0.00 25
20260507015858 62 223 4.3 9.6 0.00 0.00 0.00 25
20260507015258 63 249 3.5 13.0 0.00 0.00 0.00 24
20260507014715 63 271 5.2 13.9 0.00 0.00 0.00 24
20260507014058 63 282 5.2 12.2 0.00 0.00 0.00 23
20260507013458 64 240 5.2 12.2 0.00 0.00 0.00 22
20260507012858 64 254 5.2 10.4 0.00 0.00 0.00 22
20260507012258 65 240 4.3 11.3 0.00 0.00 0.00 22
20260507011658 65 282 4.3 13.0 0.00 0.00 0.00 21
20260507011058 66 266 4.3 12.2 0.00 0.00 0.00 19
20260507010515 66 269 4.3 13.9 0.00 0.00 0.00 19
20260507005858 66 226 6.1 15.6 0.00 0.00 0.00 19
20260507005258 67 236 7.8 18.2 0.00 0.00 0.00 18
20260507004658 67 260 7.0 15.6 0.00 0.00 0.00 17
20260507004058 67 240 4.3 17.4 0.00 0.00 0.00 16
20260507003458 68 261 6.1 18.2 0.00 0.00 0.00 15
20260507002858 68 239 8.7 16.5 0.00 0.00 0.00 14
20260507002258 68 217 6.1 14.8 0.00 0.00 0.00 15
20260507001658 69 247 5.2 14.8 0.00 0.00 0.00 13
20260507001058 69 229 4.3 15.6 0.00 0.00 0.00 14
20260507000459 69 240 4.3 18.2 0.00 0.00 0.00 13
20260506235858 70 238 5.2 16.5 0.00 0.00 0.00 13
20260506235258 70 267 4.3 15.6 0.00 0.00 0.00 15